www.pogodaiklimat.ru

Погода и климат >> Архив погоды >> Норвегия >> Эдж


ПОГОДА на Эдже

  • Прогноз погоды на Эдже
  • Монитор погоды на Эдже

АРХИВ ПОГОДЫ на Эдже

Время (UTC), дата Ветер
(напр.,м/с)
 
Видим.   Явления Облачность Т
(С)
Тd
(С)
f
(%)
Тe
(С)
Тes
(С)
Комфортность P
(гПа)
Po
(гПа)
Тmin
(С)
Tmax
(С)
R
(мм)
R24
(мм)
S
(см)
22 13.09 В 5 н/о н/о +0.9 +0.8 99 -5 -5 1000.4 998.9
23 13.09 В 3 н/о н/о +0.9 +0.8 99 -4 -4 1000.6 999.1
00 14.09 В 5 н/о н/о +1.1 +1.0 99 -5 -5 1000.6 999.0
01 14.09 В 7
{9}
н/о н/о +1.0 +0.9 99 -6 -6 1000.7 999.2
02 14.09 В 8
{9}
н/о н/о +1.0 +0.9 99 -6 -6 1001.0 999.4
03 14.09 В 6 н/о н/о +1.0 +1.0 100 -6 -6 1001.7 1000.1
04 14.09 В 5
{6}
н/о н/о +1.0 +0.9 99 -5 -5 1001.8 1000.3
05 14.09 В 6
{7}
н/о н/о +1.3 +1.2 99 -5 -5 1001.7 1000.2
06 14.09 В 6
{9}
н/о н/о +1.3 +1.2 99 -5 -5 1002.1 1000.5
07 14.09 В 6 н/о н/о +1.4 +1.3 99 -5 -5 1002.5 1000.9
08 14.09 ЮВ 4
{7}
н/о н/о +1.2 +1.2 100 -4 -4 1003.0 1001.5
09 14.09 В 7
{8}
н/о н/о +1.1 +1.0 99 -6 -6 1003.1 1001.5
10 14.09 ЮВ 6
{8}
н/о н/о +1.1 +1.0 99 -5 -5 1003.3 1001.8
11 14.09 ЮВ 6
{7}
н/о н/о +1.0 +1.0 100 -6 -6 1003.4 1001.8
12 14.09 ЮВ 5
{8}
н/о н/о +1.1 +1.0 99 -5 -5 1003.4 1001.8
13 14.09 ЮВ 6
{7}
н/о н/о +1.3 +1.2 99 -5 -5 1003.3 1001.7
14 14.09 В 7
{8}
н/о н/о +1.2 +1.1 99 -6 -6 1003.0 1001.4
15 14.09 В 9
{11}
н/о н/о +1.2 +1.2 100 -7 -7 1002.4 1000.9
16 14.09 В 10
{12}
н/о н/о +1.2 +1.2 100 -7 -7 1002.1 1000.6
18 14.09 В 9 н/о н/о +1.3 +1.2 99 -6 -6 1001.8 1000.2
19 14.09 В 10
{12}
н/о н/о +1.4 +1.3 99 -7 -7 1001.3 999.7
20 14.09 В 11
{13}
н/о н/о +1.2 +1.1 99 -7 -7 1000.7 999.2
22 14.09 В 11
{13}
н/о н/о +1.5 +1.5 100 -7 -7 1000.4 998.8
23 14.09 ЮВ 8
{12}
н/о н/о +1.4 +1.3 99 -6 -6 1001.2 999.6
00 15.09 ЮВ 6 н/о н/о +1.2 +1.1 99 -5 -5 1001.9 1000.4
01 15.09 ЮВ 6
{7}
н/о н/о +1.0 +0.9 99 -6 -6 1002.6 1001.0
02 15.09 ЮВ 6
{7}
н/о н/о +0.4 +0.4 100 -6 -6 1003.2 1001.6
03 15.09 ЮВ 5
{8}
н/о н/о +0.6 +0.6 100 -6 -6 1004.2 1002.7
04 15.09 ЮВ 4
{7}
н/о н/о +0.6 +0.5 99 -5 -5 1004.8 1003.2
05 15.09 В 6
{7}
н/о н/о +1.1 +1.0 99 -5 -5 1005.1 1003.5
06 15.09 ЮВ 7
{8}
н/о н/о +1.3 +1.3 100 -6 -6 1005.6 1004.0
07 15.09 ЮВ 6
{7}
н/о н/о +1.5 +1.4 99 -5 -5 1006.1 1004.5
08 15.09 ЮВ 7
{8}
н/о н/о +1.8 +1.7 99 -5 -5 1006.6 1005.1
09 15.09 ЮВ 8
{9}
н/о н/о +2.1 +2.0 99 -5 -5 1007.3 1005.8
10 15.09 ЮВ 7
{9}
н/о н/о +2.2 +1.9 98 -4 -4 1008.3 1006.8
11 15.09 ЮВ 8
{9}
н/о н/о +1.9 +1.8 99 -5 -5 1009.0 1007.5
13 15.09 ЮВ 7
{9}
н/о н/о +1.5 +1.4 99 -5 -5 1010.3 1008.7
15 15.09 ЮВ 4
{7}
н/о н/о +1.0 +0.9 99 -4 -4 1011.9 1010.4
16 15.09 В 4
{5}
н/о н/о +1.0 +0.9 99 -4 -4 1012.3 1010.7
17 15.09 СВ 4
{5}
н/о н/о +0.7 +0.6 99 -5 -5 1012.9 1011.3
18 15.09 СВ 4 н/о н/о +0.4 +0.3 99 -5 -5 1013.2 1011.6
19 15.09 В 5
{6}
н/о н/о +0.3 +0.3 100 -6 -6 1013.6 1012.0
20 15.09 В 4
{6}
н/о н/о +0.3 +0.2 99 -5 -5 1014.1 1012.6
21 15.09 В 4
{5}
н/о н/о +0.8 +0.7 99 -5 -5 1014.6 1013.0
22 15.09 В 9
{11}
н/о н/о +0.7 +0.7 100 -7 -7 1014.9 1013.3
23 15.09 В 8
{10}
н/о н/о +0.4 +0.3 99 -7 -7 1015.8 1014.2
00 16.09 В 9
{11}
н/о н/о +0.5 +0.4 99 -7 -7 1016.2 1014.7
01 16.09 В 9
{11}
н/о н/о +0.4 0.0 97 -8 -8 1016.9 1015.3
02 16.09 В 9
{10}
н/о н/о +0.4 -0.6 93 -7 -7 1017.4 1015.8
03 16.09 В 9
{10}
н/о н/о +0.3 -0.4 95 -8 -8 1018.1 1016.5
04 16.09 В 7
{10}
н/о н/о 0.0 -0.4 97 -7 -7 1018.8 1017.2
05 16.09 В 8
{10}
н/о н/о +0.1 -0.7 94 -8 -8 1019.4 1017.8
06 16.09 В 9
{11}
н/о н/о -0.2 -0.7 96 -8 -8 1019.5 1017.9 -0.2 +0.9
07 16.09 СВ 9
{10}
н/о н/о -0.2 -0.7 96 -8 -8 1019.8 1018.2
08 16.09 СВ 9
{10}
н/о н/о -0.2 -0.9 95 -8 -8 1020.1 1018.5
09 16.09 СВ 9
{10}
н/о н/о -0.2 -1.5 91 -8 -8 1020.5 1018.9
10 16.09 СВ 8
{10}
н/о н/о -0.2 -1.3 92 -8 -8 1021.1 1019.5
11 16.09 СВ 9
{10}
н/о н/о -0.3 -1.2 94 -8 -8 1021.4 1019.8
12 16.09 СВ 9
{10}
н/о н/о -0.3 -1.4 92 -8 -8 1021.7 1020.1
13 16.09 СВ 8
{10}
н/о н/о -0.6 -1.3 95 -8 -8 1021.9 1020.3
14 16.09 СВ 10
{11}
н/о н/о -0.8 -1.4 96 -9 -9 1021.7 1020.1
15 16.09 СВ 11
{13}
н/о н/о -0.9 -1.5 96 -10 -10 1021.8 1020.2
16 16.09 СВ 11
{13}
н/о н/о -1.1 -2.0 94 -10 -10 1021.8 1020.2
17 16.09 СВ 11
{13}
н/о н/о -1.0 -1.7 95 -10 -10 1021.6 1020.0
18 16.09 СВ 11
{14}
н/о н/о -1.3 -2.3 93 -10 -10 1021.9 1020.3 -1.3 -0.1
19 16.09 СВ 11
{14}
н/о н/о -1.1 -2.0 94 -10 -10 1021.7 1020.1
21 16.09 СВ 10
{14}
н/о н/о -0.8 -1.0 99 -10 -10 1021.7 1020.1
22 16.09 СВ 9
{11}
н/о н/о -0.6 -1.2 96 -9 -9 1022.1 1020.5
23 16.09 СВ 10
{12}
н/о н/о -0.8 -1.3 96 -9 -9 1022.3 1020.7
00 17.09 СВ 9 н/о н/о -0.7 -1.1 97 -9 -9 1022.5 1020.9
01 17.09 СВ 9
{11}
н/о н/о -0.9 -1.1 99 -9 -9 1022.5 1020.9
02 17.09 СВ 10
{12}
н/о н/о -1.2 -1.3 99 -10 -10 1022.6 1021.0
03 17.09 СВ 11
{13}
н/о н/о -1.4 -2.0 96 -11 -11 1022.5 1020.9
04 17.09 СВ 11
{12}
н/о н/о -1.5 -2.8 91 -11 -11 1022.3 1020.7
05 17.09 СВ 10
{12}
н/о н/о -1.9 -3.0 92 -11 -11 1022.3 1020.7
06 17.09 СВ 10
{13}
н/о н/о -1.9 -3.3 90 -11 -11 1022.2 1020.6
07 17.09 СВ 10
{12}
н/о н/о -2.0 -3.0 93 -11 -11 1021.9 1020.3
08 17.09 СВ 11
{13}
н/о н/о -2.3 -3.2 94 -12 -12 1021.9 1020.3
09 17.09 С 9
{12}
н/о н/о -2.2 -3.7 89 -11 -11 1022.2 1020.6
10 17.09 С 9
{11}
н/о н/о -2.5 -4.1 89 -11 -11 1022.4 1020.8
11 17.09 С 8
{11}
н/о н/о -2.7 -4.3 89 -11 -11 1022.5 1020.9
12 17.09 С 9
{13}
н/о н/о -2.8 -3.7 94 -12 -12 1022.2 1020.6
13 17.09 СВ 8
{11}
н/о н/о -2.8 -4.0 91 -11 -11 1022.1 1020.5
14 17.09 СВ 9
{10}
н/о н/о -2.9 -4.4 89 -12 -12 1022.0 1020.4
15 17.09 СВ 8
{10}
н/о н/о -1.8 -4.6 81 -10 -10 1021.4 1019.7
16 17.09 С 6
{8}
н/о н/о -2.3 -4.1 87 -10 -10 1021.3 1019.7
17 17.09 С 8
{9}
н/о н/о -2.3 -4.6 84 -10 -10 1020.9 1019.3
18 17.09 С 8
{11}
н/о н/о -2.3 -4.2 87 -10 -10 1020.7 1019.1 -2.9 -1.7
20 17.09 СВ 9
{11}
н/о н/о -2.6 -5.5 80 -11 -11 1019.9 1018.3
22 17.09 СВ 8
{10}
н/о н/о -2.8 -5.4 82 -11 -11 1019.6 1018.0
23 17.09 С 9
{10}
н/о н/о -3.1 -5.1 86 -12 -12 1019.2 1017.6
00 18.09 С 8 н/о н/о -3.0 -4.5 89 -11 -11 1018.8 1017.2
01 18.09 СВ 8
{10}
н/о н/о -3.0 -4.8 87 -11 -11 1018.6 1017.0
02 18.09 СВ 8
{9}
н/о н/о -3.2 -5.8 82 -12 -12 1018.2 1016.6
03 18.09 С 6
{9}
н/о н/о -3.3 -7.0 76 -11 -11 1017.8 1016.2
04 18.09 С 8
{9}
н/о н/о -3.7 -6.2 83 -12 -12 1017.2 1015.6
05 18.09 С 9
{10}
н/о н/о -3.4 -5.4 86 -12 -12 1016.8 1015.2
06 18.09 С 9
{11}
н/о н/о -2.9 -4.4 89 -12 -12 1016.2 1014.6
07 18.09 С 10
{12}
н/о н/о -2.4 -4.2 87 -11 -11 1015.8 1014.2
08 18.09 С 11
{13}
н/о н/о -2.0 -3.5 89 -11 -11 1015.3 1013.7
10 18.09 С 12
{13}
н/о н/о -1.4 -2.7 91 -11 -11 1014.3 1012.7
11 18.09 С 11
{14}
н/о н/о -1.1 -2.8 88 -10 -10 1014.0 1012.4
12 18.09 С 12 н/о н/о -0.8 -2.1 91 -10 -10 1013.1 1011.5
13 18.09 С 9
{15}
н/о н/о -0.7 -1.8 92 -9 -9 1012.8 1011.2
14 18.09 С 9
{12}
н/о н/о -0.7 -1.8 92 -9 -9 1012.2 1010.6
15 18.09
{14}
н/о н/о -1.3 -2.8 90 1011.5 1009.9
16 18.09 С 10
{13}
н/о н/о -1.4 -2.4 93 -10 -10 1011.5 1009.9
17 18.09 С 11
{12}
н/о н/о -0.9 -2.0 92 -10 -10 1010.8 1009.2
18 18.09
{15}
н/о н/о -1.1 -2.0 94 1010.1 1008.5
19 18.09
{13}
н/о н/о -1.3 -2.2 94 1009.7 1008.1
21 18.09 С 12
{14}
н/о н/о -2.3 -3.2 94 -12 -12 1009.6 1008.0
22 18.09 С 9
{13}
н/о н/о -2.5 -3.1 96 -11 -11 1009.8 1008.2
23 18.09 С 9
{11}
н/о н/о -2.6 -3.7 92 -11 -11 1009.7 1008.1
00 19.09 С 9 н/о н/о -2.3 -3.7 90 -11 -11 1009.9 1008.3
01 19.09 С 8
{10}
н/о н/о -2.4 -3.6 91 -11 -11 1010.0 1008.4
02 19.09 С 8
{9}
н/о н/о -2.2 -3.4 91 -10 -10 1010.1 1008.5
03 19.09 С 8
{9}
н/о н/о -2.1 -3.3 91 -10 -10 1010.1 1008.5
04 19.09 С 8
{9}
н/о н/о -2.1 -3.2 92 -10 -10 1010.1 1008.5
05 19.09 С 7
{9}
н/о н/о -1.9 -3.0 92 -10 -10 1010.2 1008.7
06 19.09
{10}
н/о н/о -2.0 -3.0 93 1010.3 1008.7
07 19.09 С 6
{7}
н/о н/о -1.9 -2.9 93 -9 -9 1010.5 1008.9
08 19.09 С 6
{7}
н/о н/о -1.8 -2.8 93 -9 -9 1010.7 1009.1
09 19.09 С 6
{7}
н/о н/о -1.7 -2.7 93 -9 -9 1010.8 1009.2
10 19.09
{8}
н/о н/о -1.5 -2.8 91 1010.9 1009.3
11 19.09
{8}
н/о н/о -1.2 -2.5 91 1011.3 1009.7
12 19.09
{8}
н/о н/о -1.3 -2.6 91 1011.5 1010.0
13 19.09 С 6
{8}
н/о н/о -1.1 -2.5 90 -8 -8 1011.4 1009.9
14 19.09 С 7
{8}
н/о н/о -1.1 -2.8 88 -9 -9 1011.4 1009.8
15 19.09 С 7
{9}
н/о н/о -1.2 -2.6 90 -9 -9 1011.6 1010.0
16 19.09 С 6
{7}
н/о н/о -1.2 -2.7 90 -8 -8 1011.8 1010.2
17 19.09 С 6
{8}
н/о н/о -1.3 -2.6 91 -8 -8 1011.7 1010.1
18 19.09 С 6
{9}
н/о н/о -1.4 -2.5 92 -9 -9 1011.7 1010.1 -2.0 -1.0
20 19.09 С 6
{7}
н/о н/о -1.4 -2.7 91 -9 -9 1011.4 1009.8
21 19.09 С 6
{8}
н/о н/о -1.4 -2.5 92 -9 -9 1011.3 1009.7
23 19.09 С 7
{8}
н/о н/о -1.0 -2.5 90 -8 -8 1011.2 1009.7
00 20.09 СЗ 5 н/о н/о -0.6 -2.7 86 -7 -7 1011.3 1009.8
01 20.09 СЗ 5
{7}
н/о н/о -0.8 -2.7 87 -7 -7 1011.3 1009.7
02 20.09 С 8
{10}
н/о н/о -1.1 -2.4 91 -9 -9 1010.6 1009.0
03 20.09 С 7
{9}
н/о н/о -1.2 -2.2 93 -9 -9 1010.5 1008.9
04 20.09 С 8
{10}
н/о н/о -1.2 -2.2 93 -9 -9 1010.3 1008.7
05 20.09 С 7
{9}
н/о н/о -1.3 -2.6 91 -9 -9 1010.1 1008.5
06 20.09 С 7
{10}
н/о н/о -1.4 -2.8 90 -9 -9 1010.0 1008.4
07 20.09 С 6
{8}
н/о н/о -1.4 -2.9 90 -8 -8 1009.6 1008.0
08 20.09 С 5
{7}
н/о н/о -1.4 -2.8 90 -8 -8 1009.6 1008.0
09 20.09 СЗ 7
{8}
н/о н/о -1.1 -2.6 90 -9 -9 1009.1 1007.5
10 20.09 СЗ 8
{9}
н/о н/о -1.1 -2.8 88 -9 -9 1008.8 1007.2
11 20.09 СЗ 8
{11}
н/о н/о -1.0 -3.1 86 -9 -9 1008.8 1007.2
12 20.09 СЗ 8
{11}
н/о н/о -1.0 -2.8 88 -9 -9 1008.6 1007.0
13 20.09 С 8
{9}
н/о н/о -1.1 -2.8 88 -9 -9 1008.2 1006.6
14 20.09 С 7
{9}
н/о н/о -1.1 -2.8 88 -9 -9 1007.7 1006.2
15 20.09 С 8
{9}
н/о н/о -1.1 -2.8 88 -9 -9 1007.2 1005.6
16 20.09 СЗ 8
{13}
н/о н/о -1.5 -3.2 88 -9 -9 1007.0 1005.4
17 20.09 С 7
{9}
н/о н/о -2.4 -3.3 94 -10 -10 1006.8 1005.2
18 20.09 С 7
{13}
н/о н/о -2.5 -3.4 94 -10 -10 1006.3 1004.7 -2.5 -0.9
19 20.09 С 6
{8}
н/о н/о -2.6 -3.2 96 -10 -10 1006.2 1004.7

 

Местоположение метеостанции Эдж (Норвегия): широта 78.25 долгота 22.82 высота над уровнем моря 14 м.

В архиве по умолчанию представлена погода на Эдже за последнюю неделю. Архивные данные за месяц целиком и за предыдущие месяцы, начиная с января 2011 года, Вы можете получить, выбрав интересующий диапазон дат из раскрывающегося списка и нажав кнопку "Ввод!".


*Определитесь, кто Вы:
робот инопланетянин человек

Внимание! Время в таблицах - всемирное. Для получения местного времени необходимо прибавить поправку, которая равна 1 ч.

Смотрите также архив погоды в соседних городах и на ближайших метеорологических станциях:

Погода в Пирамиде (Норвегия) (151 км)
Погода на Конгсёйа (Норвегия) (153 км)
Погода в Свальбард аэропорту (Норвегия) (166 км)
Погода в Баренцбурге (Шпицберген, Россия) (196 км)
Погода на Акселойа (Норвегия) (197 км)
Погода в Хопене (Норвегия) (201 км)
Погода на Хорнсунне (Норвегия) (222 км)
Погода на Верлегенхукен (Норвегия) (243 км)
Погода на Сёркаппёйа (Норвегия) (249 км)
Погода в Ню-Олесунн (Норвегия) (251 км)

Пояснения к столбцам:

Ветер - указаны скорость ветра в м/с - средняя за 10 мин, порывы в срок и между сроками (в фигурных скобках) и направление, откуда дует ветер: С - северный, СВ - северо-восточный, В - восточный, ЮВ - юго-восточный, Ю - южный, ЮЗ - юго-западный, З - западный, СЗ - северо-западный.
Видимость - горизонтальная дальность видимости в метрах или километрах. При видимости от 1 до 10 км при отсутствии осадков обычно наблюдается дымка, при ухудшении видимости до 1 км и менее - туман. В сухую погоду видимость может ухудшаться дымом, пылью или мглою.
Явления - указаны атмосферные явления, наблюдавшиеся в срок или в последний час перед сроком; фигурными скобками обозначены явления, наблюдавшиеся между сроками (за 1-3 часа до срока); квадратными скобками обозначены град или гололедные отложения с указанием их диаметра в мм.
Облачность - указаны через наклонную черту общая и нижняя облачность в баллах и высота нижней границы облаков в метрах; квадратными скобками обозначены формы облаков: Ci - перистые, Cs - перисто-слоистые, Cc - перисто-кучевые, Ac - высококучевые, As - высокослоистые, Sc - слоисто-кучевые, Ns - слоисто-дождевые, Cu - кучевые, Cb - кучево-дождевые. Подробнее классификацию облаков см. в Атласе облаков (PDF).
T - Температура воздуха - температура, измеренная на высоте 2 м над землей.
Td - Температура точки росы - температура, при понижении до которой содержащийся в воздухе водяной пар достигнет насыщения.
f - Относительная влажность воздуха - влажноcть воздуха, измеренная на высоте 2 м над землей.
Te - Эффективная температура - температура, которую ощущает одетый по сезону человек в тени. Характеристика душности погоды. При расчете учитывается влияние влажности воздуха и скорости ветра на теплоощущения человека.
Tes - Эффективная температура на солнце - температура, которую ощущает человек, с поправкой на солнечный нагрев. Характеристика знойности погоды. Зависит от высоты солнца над горизонтом, облачности и скорости ветра. Ночью, в пасмурную погоду, а также при ветре 12 м/с и более поправка равна нулю.
P - Атмосферное давление - приведенное к уровню моря атмосферное давление.
Po - Атмосферное давление - измеренное на уровне метеостанции атмосферное давление.
Tmin - Минимальная температура - минимум температуры воздуха на высоте 2 м над землей.
Tmax - Максимальная температура - максимум температуры воздуха на высоте 2 м над землей.
R - Количество осадков - Количество выпавших осадков за период времени, мм. При наведении курсора мыши на число - период времени, за который выпало указанное количество осадков.
R24 - Количество осадков - Количество выпавших осадков за 24 часа, мм.
S - Снежный покров - Высота снежного покрова, см. При наведении курсора мыши на число - состояние снежного покрова и степень покрытия местности в баллах.